Year,Month,Day,Hour,Minute,Value (Times are PST for windspeed in km/hr)
2016,03,10,00,00,0.60
2016,03,10,00,01,0.00
2016,03,10,00,02,0.00
2016,03,10,00,03,0.00
2016,03,10,00,04,0.00
2016,03,10,00,05,0.00
2016,03,10,00,06,0.00
2016,03,10,00,07,0.00
2016,03,10,00,08,0.00
2016,03,10,00,09,0.00
2016,03,10,00,10,0.00
2016,03,10,00,11,0.00
2016,03,10,00,12,0.00
2016,03,10,00,13,0.00
2016,03,10,00,14,0.00
2016,03,10,00,15,0.80
2016,03,10,00,16,0.00
2016,03,10,00,17,0.00
2016,03,10,00,18,0.00
2016,03,10,00,19,0.00
2016,03,10,00,20,0.00
2016,03,10,00,21,0.00
2016,03,10,00,22,0.00
2016,03,10,00,23,0.10
2016,03,10,00,24,0.00
2016,03,10,00,25,0.00
2016,03,10,00,26,0.00
2016,03,10,00,27,0.00
2016,03,10,00,28,0.00
2016,03,10,00,29,0.00
2016,03,10,00,30,0.00
2016,03,10,00,31,0.00
2016,03,10,00,32,0.00
2016,03,10,00,33,2.00
2016,03,10,00,34,1.00
2016,03,10,00,35,0.00
2016,03,10,00,36,0.00
2016,03,10,00,37,0.00
2016,03,10,00,38,0.00
2016,03,10,00,39,0.00
2016,03,10,00,40,0.00
2016,03,10,00,41,0.00
2016,03,10,00,42,0.00
2016,03,10,00,43,0.00
2016,03,10,00,44,0.00
2016,03,10,00,45,0.00
2016,03,10,00,46,0.00
2016,03,10,00,47,0.00
2016,03,10,00,48,0.00
2016,03,10,00,49,0.50
2016,03,10,00,50,3.40
2016,03,10,00,51,1.70
2016,03,10,00,52,0.10
2016,03,10,00,53,0.00
2016,03,10,00,54,2.80
2016,03,10,00,55,0.20
2016,03,10,00,56,1.70
2016,03,10,00,57,0.10
2016,03,10,00,58,0.70
2016,03,10,00,59,0.10
2016,03,10,01,00,0.00
2016,03,10,01,01,0.00
2016,03,10,01,02,0.00
2016,03,10,01,03,0.00
2016,03,10,01,04,0.00
2016,03,10,01,05,0.00
2016,03,10,01,06,0.00
2016,03,10,01,07,0.10
2016,03,10,01,08,0.00
2016,03,10,01,09,0.40
2016,03,10,01,10,0.00
2016,03,10,01,11,2.30
2016,03,10,01,12,0.10
2016,03,10,01,13,0.10
2016,03,10,01,14,0.10
2016,03,10,01,15,0.10
2016,03,10,01,16,0.00
2016,03,10,01,17,0.00
2016,03,10,01,18,0.00
2016,03,10,01,19,0.00
2016,03,10,01,20,0.00
2016,03,10,01,21,0.00
2016,03,10,01,22,0.00
2016,03,10,01,23,0.00
2016,03,10,01,24,0.00
2016,03,10,01,25,0.00
2016,03,10,01,26,0.00
2016,03,10,01,27,0.00
2016,03,10,01,28,0.00
2016,03,10,01,29,0.00
2016,03,10,01,30,0.70
2016,03,10,01,31,0.00
2016,03,10,01,32,0.00
2016,03,10,01,33,0.00
2016,03,10,01,34,0.00
2016,03,10,01,35,0.00
2016,03,10,01,36,0.10
2016,03,10,01,37,0.00
2016,03,10,01,38,0.00
2016,03,10,01,39,0.00
2016,03,10,01,40,0.00
2016,03,10,01,41,0.00
2016,03,10,01,42,0.20
2016,03,10,01,43,0.20
2016,03,10,01,44,0.00
2016,03,10,01,45,0.00
2016,03,10,01,46,0.00
2016,03,10,01,47,0.00
2016,03,10,01,48,0.00
2016,03,10,01,49,0.00
2016,03,10,01,50,0.00
2016,03,10,01,51,0.00
2016,03,10,01,52,0.00
2016,03,10,01,53,0.10
2016,03,10,01,54,0.80
2016,03,10,01,55,0.00
2016,03,10,01,56,0.00
2016,03,10,01,57,0.00
2016,03,10,01,58,0.00
2016,03,10,01,59,0.00
2016,03,10,02,00,0.00
2016,03,10,02,01,0.00
2016,03,10,02,02,0.00
2016,03,10,02,03,0.00
2016,03,10,02,04,0.00
2016,03,10,02,05,0.00
2016,03,10,02,06,0.00
2016,03,10,02,07,0.10
2016,03,10,02,08,0.00
2016,03,10,02,09,0.00
2016,03,10,02,10,0.00
2016,03,10,02,11,0.00
2016,03,10,02,12,0.00
2016,03,10,02,13,0.00
2016,03,10,02,14,0.00
2016,03,10,02,15,1.10
2016,03,10,02,16,0.00
2016,03,10,02,17,2.10
2016,03,10,02,18,1.40
2016,03,10,02,19,2.40
2016,03,10,02,20,3.20
2016,03,10,02,21,3.70
2016,03,10,02,22,0.30
2016,03,10,02,23,2.10
2016,03,10,02,24,3.30
2016,03,10,02,25,7.90
2016,03,10,02,26,0.50
2016,03,10,02,27,0.30
2016,03,10,02,28,3.50
2016,03,10,02,29,8.20
2016,03,10,02,30,0.60
2016,03,10,02,31,0.90
2016,03,10,02,32,3.50
2016,03,10,02,33,0.00
2016,03,10,02,34,0.00
2016,03,10,02,35,0.00
2016,03,10,02,36,3.10
2016,03,10,02,37,1.50
2016,03,10,02,38,0.10
2016,03,10,02,39,0.00
2016,03,10,02,40,0.00
2016,03,10,02,41,0.00
2016,03,10,02,42,0.00
2016,03,10,02,43,0.00
2016,03,10,02,44,0.00
2016,03,10,02,45,0.10
2016,03,10,02,46,0.00
2016,03,10,02,47,0.00
2016,03,10,02,48,0.00
2016,03,10,02,49,0.00
2016,03,10,02,50,0.00
2016,03,10,02,51,0.00
2016,03,10,02,52,0.10
2016,03,10,02,53,0.10
2016,03,10,02,54,0.00
2016,03,10,02,55,0.00
2016,03,10,02,56,0.00
2016,03,10,02,57,0.00
2016,03,10,02,58,0.00
2016,03,10,02,59,0.00
2016,03,10,03,00,0.00
2016,03,10,03,01,0.00
2016,03,10,03,02,0.00
2016,03,10,03,06,0.20
2016,03,10,03,07,0.00
2016,03,10,03,08,0.20
2016,03,10,03,09,1.00
2016,03,10,03,10,0.10
2016,03,10,03,11,0.00
2016,03,10,03,12,0.60
2016,03,10,03,13,0.00
2016,03,10,03,14,0.00
2016,03,10,03,15,1.10
2016,03,10,03,16,1.10
2016,03,10,03,17,0.00
2016,03,10,03,18,0.00
2016,03,10,03,19,0.40
2016,03,10,03,20,0.40
2016,03,10,03,21,0.20
2016,03,10,03,22,1.80
2016,03,10,03,23,4.20
2016,03,10,03,24,0.80
2016,03,10,03,25,2.20
2016,03,10,03,26,2.40
2016,03,10,03,27,0.90
2016,03,10,03,28,0.30
2016,03,10,03,29,2.10
2016,03,10,03,30,2.70
2016,03,10,03,31,2.70
2016,03,10,03,32,0.50
2016,03,10,03,33,0.00
2016,03,10,03,34,1.20
2016,03,10,03,35,0.00
2016,03,10,03,36,0.00
2016,03,10,03,37,0.00
2016,03,10,03,38,0.10
2016,03,10,03,39,0.00
2016,03,10,03,40,1.70
2016,03,10,03,41,1.40
2016,03,10,03,42,0.60
2016,03,10,03,43,0.20
2016,03,10,03,44,1.40
2016,03,10,03,45,1.40
2016,03,10,03,46,0.00
2016,03,10,03,47,1.70
2016,03,10,03,48,5.10
2016,03,10,03,49,6.60
2016,03,10,03,50,1.00
2016,03,10,03,51,5.10
2016,03,10,03,52,4.50
2016,03,10,03,53,5.60
2016,03,10,03,54,4.60
2016,03,10,03,55,1.00
2016,03,10,03,56,0.00
2016,03,10,03,57,1.60
2016,03,10,03,58,0.30
2016,03,10,03,59,1.30
2016,03,10,04,00,4.10
2016,03,10,04,01,2.90
2016,03,10,04,02,4.30
2016,03,10,04,03,0.10
2016,03,10,04,04,0.00
2016,03,10,04,05,0.30
2016,03,10,04,06,0.10
2016,03,10,04,07,0.00
2016,03,10,04,08,3.10
2016,03,10,04,09,0.30
2016,03,10,04,10,0.00
2016,03,10,04,11,0.10
2016,03,10,04,12,0.70
2016,03,10,04,13,0.10
2016,03,10,04,14,0.00
2016,03,10,04,15,0.00
2016,03,10,04,16,0.00
2016,03,10,04,17,0.20
2016,03,10,04,18,0.60
2016,03,10,04,19,0.30
2016,03,10,04,20,0.40
2016,03,10,04,21,0.00
2016,03,10,04,22,0.00
2016,03,10,04,23,0.00
2016,03,10,04,24,0.00
2016,03,10,04,25,0.00
2016,03,10,04,26,0.00
2016,03,10,04,27,0.00
2016,03,10,04,28,0.00
2016,03,10,04,29,0.00
2016,03,10,04,30,0.00
2016,03,10,04,31,0.00
2016,03,10,04,32,0.00
2016,03,10,04,33,0.00
2016,03,10,04,34,0.10
2016,03,10,04,35,0.00
2016,03,10,04,36,0.00
2016,03,10,04,37,0.00
2016,03,10,04,38,0.00
2016,03,10,04,39,0.00
2016,03,10,04,40,0.00
2016,03,10,04,41,0.00
2016,03,10,04,42,0.00
2016,03,10,04,43,0.00
2016,03,10,04,44,0.00
2016,03,10,04,45,0.00
2016,03,10,04,46,0.00
2016,03,10,04,47,0.00
2016,03,10,04,48,0.00
2016,03,10,04,49,0.10
2016,03,10,04,50,0.90
2016,03,10,04,51,0.00
2016,03,10,04,52,0.00
2016,03,10,04,53,0.10
2016,03,10,04,54,0.00
2016,03,10,04,55,4.60
2016,03,10,04,56,10.00
2016,03,10,04,57,1.40
2016,03,10,04,58,0.10
2016,03,10,04,59,1.00
2016,03,10,05,00,0.30
2016,03,10,05,01,0.00
2016,03,10,05,02,0.10
2016,03,10,05,03,0.70
2016,03,10,05,04,0.10
2016,03,10,05,05,0.00
2016,03,10,05,06,2.20
2016,03,10,05,07,0.50
2016,03,10,05,08,0.80
2016,03,10,05,09,1.70
2016,03,10,05,10,0.10
2016,03,10,05,11,2.90
2016,03,10,05,12,0.00
2016,03,10,05,13,3.70
2016,03,10,05,14,12.50
2016,03,10,05,15,4.70
2016,03,10,05,16,6.80
2016,03,10,05,17,9.40
2016,03,10,05,18,9.70
2016,03,10,05,19,1.80
2016,03,10,05,20,6.40
2016,03,10,05,21,3.30
2016,03,10,05,22,0.20
2016,03,10,05,23,5.90
2016,03,10,05,24,0.40
2016,03,10,05,25,0.00
2016,03,10,05,26,0.00
2016,03,10,05,27,1.40
2016,03,10,05,28,0.20
2016,03,10,05,29,0.10
2016,03,10,05,30,0.10
2016,03,10,05,31,2.40
2016,03,10,05,32,0.80
2016,03,10,05,33,2.50
2016,03,10,05,34,6.50
2016,03,10,05,35,4.40
2016,03,10,05,36,3.00
2016,03,10,05,37,6.60
2016,03,10,05,38,1.80
2016,03,10,05,39,0.60
2016,03,10,05,40,0.10
2016,03,10,05,41,2.70
2016,03,10,05,42,5.20
2016,03,10,05,43,1.80
2016,03,10,05,44,1.50
2016,03,10,05,45,6.10
2016,03,10,05,46,1.70
2016,03,10,05,47,3.10
2016,03,10,05,48,2.70
2016,03,10,05,49,0.30
2016,03,10,05,50,2.50
2016,03,10,05,51,9.00
2016,03,10,05,52,5.30
2016,03,10,05,53,5.80
2016,03,10,05,54,3.00
2016,03,10,05,55,0.20
2016,03,10,05,56,1.90
2016,03,10,05,57,3.20
2016,03,10,05,58,3.10
2016,03,10,05,59,1.90
2016,03,10,06,00,2.70
2016,03,10,06,01,3.10
2016,03,10,06,02,0.70
2016,03,10,06,03,3.10
2016,03,10,06,04,5.40
2016,03,10,06,05,0.80
2016,03,10,06,06,0.00
2016,03,10,06,07,0.00
2016,03,10,06,08,5.20
2016,03,10,06,09,5.50
2016,03,10,06,10,7.60
2016,03,10,06,11,3.90
2016,03,10,06,12,3.90
2016,03,10,06,13,3.40
2016,03,10,06,14,2.90
2016,03,10,06,15,2.30
2016,03,10,06,16,0.60
2016,03,10,06,17,3.90
2016,03,10,06,18,2.00
2016,03,10,06,19,3.20
2016,03,10,06,20,1.50
2016,03,10,06,21,0.10
2016,03,10,06,22,0.00
2016,03,10,06,23,0.10
2016,03,10,06,24,1.50
2016,03,10,06,25,1.50
2016,03,10,06,26,2.20
2016,03,10,06,27,4.30
2016,03,10,06,28,2.30
2016,03,10,06,29,0.40
2016,03,10,06,30,5.20
2016,03,10,06,31,6.00
2016,03,10,06,32,1.40
2016,03,10,06,33,2.70
2016,03,10,06,34,2.50
2016,03,10,06,35,3.60
2016,03,10,06,36,6.40
2016,03,10,06,37,1.30
2016,03,10,06,38,1.10
2016,03,10,06,39,2.30
2016,03,10,06,40,1.40
2016,03,10,06,41,6.50
2016,03,10,06,42,11.00
2016,03,10,06,43,7.80
2016,03,10,06,44,7.30
2016,03,10,06,45,6.10
2016,03,10,06,46,6.70
2016,03,10,06,47,4.10
2016,03,10,06,48,3.90
2016,03,10,06,49,6.30
2016,03,10,06,50,11.30
2016,03,10,06,51,2.20
2016,03,10,06,52,8.00
2016,03,10,06,53,7.80
2016,03,10,06,54,20.50
2016,03,10,06,55,10.10
2016,03,10,06,56,11.60
2016,03,10,06,57,4.70
2016,03,10,06,58,4.70
2016,03,10,06,59,3.40
2016,03,10,07,00,9.30
2016,03,10,07,01,3.30
2016,03,10,07,02,5.50
2016,03,10,07,03,10.80
2016,03,10,07,04,11.70
2016,03,10,07,05,8.30
2016,03,10,07,06,3.40
2016,03,10,07,07,11.20
2016,03,10,07,08,12.00
2016,03,10,07,09,5.30
2016,03,10,07,10,6.20
2016,03,10,07,11,1.90
2016,03,10,07,12,4.90
2016,03,10,07,13,6.50
2016,03,10,07,14,12.60
2016,03,10,07,15,5.10
2016,03,10,07,16,7.80
2016,03,10,07,17,5.10
2016,03,10,07,18,3.10
2016,03,10,07,19,8.80
2016,03,10,07,20,11.10
2016,03,10,07,21,12.10
2016,03,10,07,22,6.80
2016,03,10,07,23,4.30
2016,03,10,07,24,7.20
2016,03,10,07,25,11.60
2016,03,10,07,26,10.60
2016,03,10,07,27,5.40
2016,03,10,07,28,5.50
2016,03,10,07,29,12.70
2016,03,10,07,30,2.70
2016,03,10,07,31,4.70
2016,03,10,07,32,6.00
2016,03,10,07,33,3.40
2016,03,10,07,34,8.00
2016,03,10,07,35,1.40
2016,03,10,07,36,9.30
2016,03,10,07,37,4.30
2016,03,10,07,38,2.90
2016,03,10,07,39,3.30
2016,03,10,07,40,3.10
2016,03,10,07,41,3.30
2016,03,10,07,42,2.50
2016,03,10,07,43,6.40
2016,03,10,07,44,10.00
2016,03,10,07,45,9.00
2016,03,10,07,46,7.10
2016,03,10,07,47,8.60
2016,03,10,07,48,4.30
2016,03,10,07,49,2.70
2016,03,10,07,50,6.60
2016,03,10,07,51,12.10
2016,03,10,07,52,14.40
2016,03,10,07,53,6.30
2016,03,10,07,54,5.70
2016,03,10,07,55,5.60
2016,03,10,07,56,8.60
2016,03,10,07,57,2.50
2016,03,10,07,58,2.40
2016,03,10,07,59,8.40
2016,03,10,08,00,3.20
2016,03,10,08,01,4.40
2016,03,10,08,02,9.50
2016,03,10,08,03,5.90
2016,03,10,08,04,0.80
2016,03,10,08,05,1.70
2016,03,10,08,06,2.20
2016,03,10,08,07,1.60
2016,03,10,08,08,6.70
2016,03,10,08,09,14.90
2016,03,10,08,10,20.50
2016,03,10,08,11,27.30
2016,03,10,08,12,17.80
2016,03,10,08,13,9.40
2016,03,10,08,14,18.30
2016,03,10,08,15,13.90
2016,03,10,08,16,13.00
2016,03,10,08,17,11.40
2016,03,10,08,18,12.90
2016,03,10,08,19,9.20
2016,03,10,08,20,12.80
2016,03,10,08,21,19.00
2016,03,10,08,22,4.00
2016,03,10,08,23,2.90
2016,03,10,08,24,20.80
2016,03,10,08,25,9.00
2016,03,10,08,26,8.80
2016,03,10,08,27,2.80
2016,03,10,08,28,11.10
2016,03,10,08,29,6.40
2016,03,10,08,30,9.90
2016,03,10,08,31,9.00
2016,03,10,08,32,11.70
2016,03,10,08,33,6.50
2016,03,10,08,34,5.90
2016,03,10,08,35,3.90
2016,03,10,08,36,10.90
2016,03,10,08,37,10.30
2016,03,10,08,38,8.60
2016,03,10,08,39,5.80
2016,03,10,08,40,11.30
2016,03,10,08,41,7.50
2016,03,10,08,42,7.20
2016,03,10,08,43,5.10
2016,03,10,08,44,5.70
2016,03,10,08,45,4.10
2016,03,10,08,46,7.60
2016,03,10,08,47,6.80
2016,03,10,08,48,11.40
2016,03,10,08,49,5.50
2016,03,10,08,50,4.10
2016,03,10,08,51,5.70
2016,03,10,08,52,15.30
2016,03,10,08,53,10.90
2016,03,10,08,54,6.90
2016,03,10,08,55,14.10
2016,03,10,08,56,14.10
2016,03,10,08,57,2.40
2016,03,10,08,58,3.60
2016,03,10,08,59,3.60
2016,03,10,09,00,1.30
2016,03,10,09,01,1.00
2016,03,10,09,02,8.60
2016,03,10,09,03,6.30
2016,03,10,09,04,5.50
2016,03,10,09,05,1.40
2016,03,10,09,06,0.20
2016,03,10,09,07,2.40
2016,03,10,09,08,4.40
2016,03,10,09,09,1.70
2016,03,10,09,10,4.10
2016,03,10,09,11,0.70
2016,03,10,09,12,5.20
2016,03,10,09,13,1.10
2016,03,10,09,14,0.10
2016,03,10,09,15,1.00
2016,03,10,09,16,12.50
2016,03,10,09,17,5.70
2016,03,10,09,18,7.70
2016,03,10,09,19,7.60
2016,03,10,09,20,10.60
2016,03,10,09,21,2.90
2016,03,10,09,22,4.40
2016,03,10,09,23,2.80
2016,03,10,09,24,1.60
2016,03,10,09,25,8.00
2016,03,10,09,26,3.80
2016,03,10,09,27,2.80
2016,03,10,09,28,0.60
2016,03,10,09,29,6.20
2016,03,10,09,30,1.40
2016,03,10,09,31,4.10
2016,03,10,09,32,4.50
2016,03,10,09,33,5.60
2016,03,10,09,34,6.70
2016,03,10,09,35,3.90
2016,03,10,09,36,2.70
2016,03,10,09,37,9.80
2016,03,10,09,38,7.60
2016,03,10,09,39,9.60
2016,03,10,09,40,15.20
2016,03,10,09,41,8.70
2016,03,10,09,42,2.50
2016,03,10,09,43,7.30
2016,03,10,09,44,8.00
2016,03,10,09,45,13.00
2016,03,10,09,46,8.70
2016,03,10,09,47,3.50
2016,03,10,09,48,2.60
2016,03,10,09,49,5.60
2016,03,10,09,50,10.50
2016,03,10,09,51,8.90
2016,03,10,09,52,11.50
2016,03,10,09,53,11.40
2016,03,10,09,54,3.70
2016,03,10,09,55,8.00
2016,03,10,09,56,1.50
2016,03,10,09,57,5.70
2016,03,10,09,58,6.50
2016,03,10,09,59,7.30
2016,03,10,10,00,7.40
2016,03,10,10,01,2.30
2016,03,10,10,02,2.50
2016,03,10,10,03,6.10
2016,03,10,10,04,3.60
2016,03,10,10,05,3.60
2016,03,10,10,06,3.10
2016,03,10,10,07,11.00
2016,03,10,10,08,10.80
2016,03,10,10,09,14.30
2016,03,10,10,10,11.20
2016,03,10,10,11,3.80
2016,03,10,10,12,5.80
2016,03,10,10,13,9.70
2016,03,10,10,14,7.70
2016,03,10,10,15,3.50
2016,03,10,10,16,10.10
2016,03,10,10,17,2.30
2016,03,10,10,18,1.80
2016,03,10,10,19,3.90
2016,03,10,10,20,6.80
2016,03,10,10,21,3.90
2016,03,10,10,22,8.30
2016,03,10,10,23,3.40
2016,03,10,10,24,0.80
2016,03,10,10,25,0.60
2016,03,10,10,26,3.50
2016,03,10,10,27,3.80
2016,03,10,10,28,4.30
2016,03,10,10,29,1.70
2016,03,10,10,30,3.20
2016,03,10,10,31,8.90
2016,03,10,10,32,8.20
2016,03,10,10,33,5.20
2016,03,10,10,34,1.90
2016,03,10,10,35,9.50
2016,03,10,10,36,4.40
2016,03,10,10,37,2.10
2016,03,10,10,38,4.20
2016,03,10,10,39,1.70
2016,03,10,10,40,1.10
2016,03,10,10,41,1.50
2016,03,10,10,42,0.10
2016,03,10,10,43,0.10
2016,03,10,10,44,2.10
2016,03,10,10,45,3.90
2016,03,10,10,46,2.70
2016,03,10,10,47,0.60
2016,03,10,10,48,12.90
2016,03,10,10,49,2.60
2016,03,10,10,50,0.90
2016,03,10,10,51,2.10
2016,03,10,10,52,4.30
2016,03,10,10,53,1.70
2016,03,10,10,54,0.60
2016,03,10,10,55,0.60
2016,03,10,10,56,2.60
2016,03,10,10,57,10.50
2016,03,10,10,58,7.70
2016,03,10,10,59,1.40
2016,03,10,11,00,8.20
2016,03,10,11,01,3.10
2016,03,10,11,02,1.50
2016,03,10,11,03,9.60
2016,03,10,11,04,3.40
2016,03,10,11,05,1.80
2016,03,10,11,06,1.30
2016,03,10,11,07,3.30
2016,03,10,11,08,1.10
2016,03,10,11,09,0.50
2016,03,10,11,10,2.70
2016,03,10,11,11,0.80
2016,03,10,11,12,0.00
2016,03,10,11,13,0.10
2016,03,10,11,14,0.00
2016,03,10,11,15,0.10
2016,03,10,11,16,0.00
2016,03,10,11,17,0.00
2016,03,10,11,18,1.00
2016,03,10,11,19,3.10
2016,03,10,11,20,0.00
2016,03,10,11,21,0.00
2016,03,10,11,22,0.00
2016,03,10,11,23,0.10
2016,03,10,11,24,0.10
2016,03,10,11,25,0.10
2016,03,10,11,26,1.50
2016,03,10,11,27,1.30
2016,03,10,11,28,0.00
2016,03,10,11,29,0.00
2016,03,10,11,30,0.80
2016,03,10,11,31,3.60
2016,03,10,11,32,2.30
2016,03,10,11,33,6.30
2016,03,10,11,34,9.60
2016,03,10,11,35,1.10
2016,03,10,11,36,4.90
2016,03,10,11,37,1.00
2016,03,10,11,38,4.70
2016,03,10,11,39,2.30
2016,03,10,11,40,0.00
2016,03,10,11,41,0.10
2016,03,10,11,42,1.60
2016,03,10,11,43,7.60
2016,03,10,11,44,5.20
2016,03,10,11,45,3.60
2016,03,10,11,46,0.50
2016,03,10,11,47,3.20
2016,03,10,11,48,3.90
2016,03,10,11,49,2.90
2016,03,10,11,50,2.50
2016,03,10,11,51,4.00
2016,03,10,11,52,3.80
2016,03,10,11,53,0.50
2016,03,10,11,54,0.00
2016,03,10,11,55,0.20
2016,03,10,11,56,0.00
2016,03,10,11,57,1.70
2016,03,10,11,58,3.00
2016,03,10,11,59,0.20
2016,03,10,12,00,0.00
2016,03,10,12,01,0.30
2016,03,10,12,02,0.00
2016,03,10,12,03,1.50
2016,03,10,12,04,1.60
2016,03,10,12,05,1.20
2016,03,10,12,06,1.00
2016,03,10,12,07,3.60
2016,03,10,12,08,1.80
2016,03,10,12,09,0.00
2016,03,10,12,10,0.00
2016,03,10,12,11,0.00
2016,03,10,12,12,0.50
2016,03,10,12,13,2.20
2016,03,10,12,14,1.10
2016,03,10,12,15,0.00
2016,03,10,12,16,0.10
2016,03,10,12,17,4.60
2016,03,10,12,18,6.00
2016,03,10,12,19,1.90
2016,03,10,12,20,1.10
2016,03,10,12,21,0.00
2016,03,10,12,22,0.00
2016,03,10,12,23,0.20
2016,03,10,12,24,0.00
2016,03,10,12,25,0.80
2016,03,10,12,26,1.10
2016,03,10,12,27,1.90
2016,03,10,12,28,0.70
2016,03,10,12,29,0.50
2016,03,10,12,30,2.00
2016,03,10,12,31,0.60
2016,03,10,12,32,2.40
2016,03,10,12,33,0.20
2016,03,10,12,34,2.50
2016,03,10,12,35,2.00
2016,03,10,12,36,0.00
2016,03,10,12,37,0.70
2016,03,10,12,38,1.40
2016,03,10,12,39,0.10
2016,03,10,12,40,1.40
2016,03,10,12,41,3.50
2016,03,10,12,42,5.00
2016,03,10,12,43,4.30
2016,03,10,12,44,0.40
2016,03,10,12,45,0.10
2016,03,10,12,46,2.50
2016,03,10,12,47,6.80
2016,03,10,12,48,3.10
2016,03,10,12,49,2.70
2016,03,10,12,50,2.70
2016,03,10,12,51,2.20
2016,03,10,12,52,1.50
2016,03,10,12,53,0.20
2016,03,10,12,54,3.40
2016,03,10,12,55,0.10
2016,03,10,12,56,1.10
2016,03,10,12,57,1.30
2016,03,10,12,58,0.50
2016,03,10,12,59,1.10
2016,03,10,13,00,0.20
2016,03,10,13,01,2.40
2016,03,10,13,02,4.10
2016,03,10,13,03,0.90
2016,03,10,13,04,1.30
2016,03,10,13,05,1.40
2016,03,10,13,06,2.30
2016,03,10,13,07,0.20
2016,03,10,13,08,6.10
2016,03,10,13,09,0.90
2016,03,10,13,10,2.10
2016,03,10,13,11,3.00
2016,03,10,13,12,1.20
2016,03,10,13,13,3.90
2016,03,10,13,14,1.90
2016,03,10,13,15,0.00
2016,03,10,13,16,0.60
2016,03,10,13,17,0.60
2016,03,10,13,18,3.90
2016,03,10,13,19,1.20
2016,03,10,13,20,1.80
2016,03,10,13,21,3.10
2016,03,10,13,22,1.70
2016,03,10,13,23,1.30
2016,03,10,13,24,2.90
2016,03,10,13,25,0.00
2016,03,10,13,26,0.10
2016,03,10,13,27,0.00
2016,03,10,13,28,0.00
2016,03,10,13,29,1.00
2016,03,10,13,30,3.80
2016,03,10,13,31,3.00
2016,03,10,13,32,2.10
2016,03,10,13,33,5.30
2016,03,10,13,34,1.70
2016,03,10,13,35,2.60
2016,03,10,13,36,5.50
2016,03,10,13,37,3.50
2016,03,10,13,38,0.10
2016,03,10,13,39,2.40
2016,03,10,13,40,1.00
2016,03,10,13,41,0.00
2016,03,10,13,42,0.00
2016,03,10,13,43,0.20
2016,03,10,13,44,0.00
2016,03,10,13,45,0.00
2016,03,10,13,46,0.00
2016,03,10,13,47,0.20
2016,03,10,13,48,2.70
2016,03,10,13,49,2.90
2016,03,10,13,50,0.60
2016,03,10,13,51,0.00
2016,03,10,13,52,0.00
2016,03,10,13,53,0.10
2016,03,10,13,54,0.70
2016,03,10,13,55,1.10
2016,03,10,13,56,0.10
2016,03,10,13,57,0.40
2016,03,10,13,58,2.30
2016,03,10,13,59,3.20
2016,03,10,14,00,0.10
2016,03,10,14,01,2.20
2016,03,10,14,02,3.20
2016,03,10,14,03,5.60
2016,03,10,14,04,3.30
2016,03,10,14,05,0.30
2016,03,10,14,06,0.60
2016,03,10,14,07,4.30
2016,03,10,14,08,1.80
2016,03,10,14,09,4.80
2016,03,10,14,10,5.10
2016,03,10,14,11,7.10
2016,03,10,14,12,6.00
2016,03,10,14,13,3.10
2016,03,10,14,14,2.50
2016,03,10,14,15,4.10
2016,03,10,14,16,3.10
2016,03,10,14,17,2.20
2016,03,10,14,18,0.90
2016,03,10,14,19,2.50
2016,03,10,14,20,2.70
2016,03,10,14,21,2.30
2016,03,10,14,22,0.70
2016,03,10,14,23,0.80
2016,03,10,14,24,2.70
2016,03,10,14,25,1.00
2016,03,10,14,26,2.20
2016,03,10,14,27,1.90
2016,03,10,14,28,0.10
2016,03,10,14,29,1.50
2016,03,10,14,30,2.60
2016,03,10,14,31,2.60
2016,03,10,14,32,0.10
2016,03,10,14,33,1.10
2016,03,10,14,34,0.00
2016,03,10,14,35,2.40
2016,03,10,14,36,4.40
2016,03,10,14,37,2.70
2016,03,10,14,38,11.70
2016,03,10,14,39,4.50
2016,03,10,14,40,1.50
2016,03,10,14,41,3.20
2016,03,10,14,42,4.30
2016,03,10,14,43,4.20
2016,03,10,14,44,3.40
2016,03,10,14,45,5.60
2016,03,10,14,46,4.30
2016,03,10,14,47,4.50
2016,03,10,14,48,6.90
2016,03,10,14,49,2.00
2016,03,10,14,50,8.40
2016,03,10,14,51,8.30
2016,03,10,14,52,11.10
2016,03,10,14,53,11.70
2016,03,10,14,54,6.40
2016,03,10,14,55,2.90
2016,03,10,14,56,3.90
2016,03,10,14,57,3.90
2016,03,10,14,58,2.70
2016,03,10,14,59,4.80
2016,03,10,15,00,8.60
2016,03,10,15,01,7.10
2016,03,10,15,02,7.60
2016,03,10,15,03,6.00
2016,03,10,15,04,2.00
2016,03,10,15,05,6.50
2016,03,10,15,06,6.90
2016,03,10,15,07,2.20
2016,03,10,15,08,0.40
2016,03,10,15,09,2.20
2016,03,10,15,10,10.30
2016,03,10,15,11,11.60
2016,03,10,15,12,9.10
2016,03,10,15,13,9.00
2016,03,10,15,14,1.50
2016,03,10,15,15,1.50
2016,03,10,15,16,7.20
2016,03,10,15,17,6.50
2016,03,10,15,18,4.60
2016,03,10,15,19,4.10
2016,03,10,15,20,0.00
2016,03,10,15,21,9.30
2016,03,10,15,22,8.90
2016,03,10,15,23,8.80
2016,03,10,15,24,4.30
2016,03,10,15,25,6.60
2016,03,10,15,26,2.70
2016,03,10,15,27,6.80
2016,03,10,15,28,2.40
2016,03,10,15,29,0.00
2016,03,10,15,30,4.50
2016,03,10,15,31,1.90
2016,03,10,15,32,3.30
2016,03,10,15,33,1.30
2016,03,10,15,34,3.30
2016,03,10,15,35,0.50
2016,03,10,15,36,6.90
2016,03,10,15,37,5.10
2016,03,10,15,38,6.00
2016,03,10,15,39,1.30
2016,03,10,15,40,4.40
2016,03,10,15,41,3.70
2016,03,10,15,42,2.30
2016,03,10,15,43,0.80
2016,03,10,15,44,0.00
2016,03,10,15,45,3.10
2016,03,10,15,46,1.50
2016,03,10,15,47,3.00
2016,03,10,15,48,2.50
2016,03,10,15,49,2.70
2016,03,10,15,50,0.10
2016,03,10,15,51,7.30
2016,03,10,15,52,6.80
2016,03,10,15,53,3.50
2016,03,10,15,54,2.70
2016,03,10,15,55,2.10
2016,03,10,15,56,4.90
2016,03,10,15,57,4.30
2016,03,10,15,58,3.90
2016,03,10,15,59,1.60
2016,03,10,16,00,1.20
2016,03,10,16,01,2.50
2016,03,10,16,02,6.40
2016,03,10,16,03,3.00
2016,03,10,16,04,0.80
2016,03,10,16,05,1.20
2016,03,10,16,06,4.90
2016,03,10,16,07,5.30
2016,03,10,16,08,7.30
2016,03,10,16,09,2.70
2016,03,10,16,10,4.00
2016,03,10,16,11,2.70
2016,03,10,16,12,3.10
2016,03,10,16,13,9.10
2016,03,10,16,14,3.40
2016,03,10,16,15,6.20
2016,03,10,16,16,4.90
2016,03,10,16,17,1.80
2016,03,10,16,18,5.90
2016,03,10,16,19,1.90
2016,03,10,16,20,0.00
2016,03,10,16,21,1.80
2016,03,10,16,22,1.80
2016,03,10,16,23,0.10
2016,03,10,16,24,7.00
2016,03,10,16,25,5.70
2016,03,10,16,26,5.90
2016,03,10,16,27,7.90
2016,03,10,16,28,11.20
2016,03,10,16,29,4.70
2016,03,10,16,30,2.80
2016,03,10,16,31,0.70
2016,03,10,16,32,7.90
2016,03,10,16,33,1.20
2016,03,10,16,34,3.70
2016,03,10,16,35,3.80
2016,03,10,16,36,1.10
2016,03,10,16,37,5.50
2016,03,10,16,38,5.10
2016,03,10,16,39,1.80
2016,03,10,16,40,4.30
2016,03,10,16,41,2.40
2016,03,10,16,42,6.00
2016,03,10,16,43,3.40
2016,03,10,16,44,1.30
2016,03,10,16,45,0.00
2016,03,10,16,46,5.30
2016,03,10,16,47,1.50
2016,03,10,16,48,0.30
2016,03,10,16,49,2.40
2016,03,10,16,50,3.10
2016,03,10,16,51,0.00
2016,03,10,16,52,0.10
2016,03,10,16,53,0.20
2016,03,10,16,54,0.60
2016,03,10,16,55,1.40
2016,03,10,16,56,0.30
2016,03,10,16,57,0.10
2016,03,10,16,58,3.50
2016,03,10,16,59,4.30
2016,03,10,17,00,0.20
2016,03,10,17,01,0.00
2016,03,10,17,02,0.00
2016,03,10,17,03,1.20
2016,03,10,17,04,0.50
2016,03,10,17,05,2.20
2016,03,10,17,06,0.50
2016,03,10,17,07,0.10
2016,03,10,17,08,0.00
2016,03,10,17,09,0.00
2016,03,10,17,10,0.00
2016,03,10,17,11,0.00
2016,03,10,17,12,0.00
2016,03,10,17,13,0.00
2016,03,10,17,14,0.00
2016,03,10,17,15,0.00
2016,03,10,17,16,0.10
2016,03,10,17,17,0.20
2016,03,10,17,18,0.40
2016,03,10,17,19,0.00
2016,03,10,17,20,2.10
2016,03,10,17,21,0.30
2016,03,10,17,22,0.10
2016,03,10,17,23,0.00
2016,03,10,17,24,0.10
2016,03,10,17,25,0.20
2016,03,10,17,26,5.40
2016,03,10,17,27,5.30
2016,03,10,17,28,3.80
2016,03,10,17,29,1.50
2016,03,10,17,30,3.00
2016,03,10,17,31,1.00
2016,03,10,17,32,0.00
2016,03,10,17,33,0.00
2016,03,10,17,34,0.00
2016,03,10,17,35,0.00
2016,03,10,17,36,0.00
2016,03,10,17,37,0.00
2016,03,10,17,38,0.00
2016,03,10,17,39,0.00
2016,03,10,17,40,0.00
2016,03,10,17,41,0.00
2016,03,10,17,42,0.00
2016,03,10,17,43,0.10
2016,03,10,17,44,0.00
2016,03,10,17,45,0.00
2016,03,10,17,46,0.00
2016,03,10,17,47,0.00
2016,03,10,17,48,0.00
2016,03,10,17,49,0.00
2016,03,10,17,50,0.00
2016,03,10,17,51,0.00
2016,03,10,17,52,0.00
2016,03,10,17,53,0.00
2016,03,10,17,54,0.00
2016,03,10,17,55,0.00
2016,03,10,17,56,0.00
2016,03,10,17,57,1.40
2016,03,10,17,58,0.20
2016,03,10,17,59,0.00
2016,03,10,18,00,0.00
2016,03,10,18,01,0.00
2016,03,10,18,02,0.10
2016,03,10,18,03,1.60
2016,03,10,18,04,0.00
2016,03,10,18,05,0.00
2016,03,10,18,06,0.00